Regional Weather Roundup
Issued by NWS Sioux Falls, SD

Home | Current Version | Previous Version | Graphics & Text | Print | Product List | Glossary On
Versions: 1 2 3 4 5 6 7 8 9 10 11 12 13 14 15 16 17 18 19 20 21 22 23 24 25 26 27 28 29 30 31 32 33 34 35 36 37 38 39 40 41 42 43 44 45 46 47 48 49 50
000
ASUS43 KFSD 301502
RWRFSD

WEATHER ROUNDUP FOR SE SOUTH DAKOTA/SW MINNESOTA/NW IOWA
NATIONAL WEATHER SERVICE SIOUX FALLS SD
1000 AM CDT THU JUL 30 2015

NOTE: "FAIR" INDICATES FEW OR NO CLOUDS BELOW 12,000 FEET WITH NO
SIGNIFICANT WEATHER AND OR OBSTRUCTIONS TO VISIBILITY.


SDZ038>040-050-052>070-301600-
SOUTHEAST SOUTH DAKOTA

CITY           SKY/WX    TMP DP  RH WIND       PRES   REMARKS
BROOKINGS      SUNNY     73  59  60 NW5       30.16S
CHAMBERLAIN    NOT AVBL
HURON          SUNNY     73  57  57 N3        30.13S
MADISON        FAIR      73  61  64 N7        30.16S
MITCHELL       SUNNY     73  58  59 CALM      30.15S
SIOUX FALLS    MOSUNNY   76  60  57 W5        30.15R
WINNER         FAIR      77  54  44 W6        30.18F
YANKTON        SUNNY     77  57  50 W15       30.16R
$$

MNZ071-072-080-081-089-090-097-098-301600-
SOUTHWEST MINNESOTA

CITY           SKY/WX    TMP DP  RH WIND       PRES   REMARKS
FAIRMONT       SUNNY     77  57  50 W8        30.11S
JACKSON        SUNNY     77  61  57 W9        30.14S
LUVERNE        SUNNY     73  59  60 W7        30.16R
MARSHALL       SUNNY     77  55  47 NW12      30.13S
MONTEVIDEO     SUNNY     79  63  57 NW6       30.11S
PIPESTONE      SUNNY     73  55  53 NW8       30.15S
REDWOOD FALLS  SUNNY     76  58  53 NW9       30.10R
TRACY          SUNNY     77  59  53 W5        30.12F
WINDOM         SUNNY     77  61  57 W8        30.13S
WORTHINGTON    SUNNY     73  57  56 W9        30.14S
$$

IAZ001>003-012>014-020>022-031-032-NEZ013-014-SDZ071-301600-
NORTHWEST IOWA

CITY           SKY/WX    TMP DP  RH WIND       PRES   REMARKS
DENISON        SUNNY     73  64  73 W8        30.18R
ESTHERVILLE    SUNNY     74  61  63 W6        30.13R
SIOUX CITY     SUNNY     77  61  57 W8        30.18R
SPENCER        SUNNY     76  61  59 W9        30.15R
$$

ABBREVIATIONS USED IN REMARKS
   TC - TEMPERATURE IN CELSIUS
  WCI - WIND CHILL INDEX
   HX - HEAT INDEX
  VSB - VISIBILITY



USA.gov is the U.S. government's official web portal to all federal, state and local government web resources and services.